Weather History for St. Clothilde, QC

Change the Weather History Date:

Sunday, November 25, 2012

  Actual Average Record
Temperature  
Mean Temperature 24 °F -  
Max Temperature 30 °F - - ()
Min Temperature 19 °F - - ()
Degree Days  
Heating Degree Days 40    
Moisture  
Dew Point 14 °F    
Average Humidity 61    
Maximum Humidity 81    
Minimum Humidity 36    
Precipitation  
Precipitation 0.00 in - - ()
Sea Level Pressure  
Sea Level Pressure 29.72 in    
Wind  
Wind Speed 10 mph ()    
Max Wind Speed 15 mph    
Max Gust Speed 25 mph    
T = Trace of Precipitation, MM = Missing Value Source: Averaged Metar Reports

Daily Weather History Graph

Daily Weather History Graph

Search for Another Location

Airport:

Trip Planner

Search our weather history database for the weather conditions in past years. The results will help you decide how hot, cold, wet, or windy it might be!

Date:

Astronomy

Nov. 25, 2012 Rise Set
Actual Time 7:06 AM EST 4:16 PM EST
Civil Twilight 6:33 AM EST 4:49 PM EST
Nautical Twilight 5:57 AM EST 5:26 PM EST
Astronomical Twilight 5:22 AM EST 6:01 PM EST
Moon 2:36 PM EST (11/25) 4:12 AM EST (11/25)
Length of Visible Light 10h 15m
Length of Day
9h 10m
Waxing Gibbous, 93% of the Moon is Illuminated
Nov 25
Waxing Gibbous
Nov 28
Full
Dec 6
Last Quarter
Dec 13
New
Dec 20
First Quarter

Hourly Weather History & Observations

Time (EST) Temp. Windchill Dew Point Humidity Pressure Visibility Wind Dir Wind Speed Gust Speed Precip Events Conditions
12:00 AM 27.3 °F 17.1 °F 18.0 °F 68% 29.66 in - WNW 11.5 mph 23.0 mph N/A   Unknown
1:00 AM 27 °F - 16 °F 50% 29.67 in - WNW 15.0 mph - -  
1:00 AM 26.6 °F 14.7 °F 15.6 °F 63% 29.67 in - WNW 15.0 mph 25.3 mph N/A   Unknown
2:00 AM 25.9 °F 14.8 °F 15.8 °F 66% 29.69 in - WNW 12.7 mph 24.2 mph N/A   Unknown
3:00 AM 25.3 °F 14.1 °F 15.3 °F 66% 29.70 in - WNW 12.7 mph 23.0 mph N/A   Unknown
4:00 AM 25.0 °F 13.1 °F 14.9 °F 66% 29.70 in - WNW 13.8 mph 21.9 mph N/A   Unknown
5:00 AM 25.0 °F 13.6 °F 15.3 °F 67% 29.71 in - West 12.7 mph 20.7 mph N/A   Unknown
6:00 AM 24.6 °F 12.7 °F 14.0 °F 64% 29.72 in - West 13.8 mph 24.2 mph N/A   Unknown
7:00 AM 24 °F - 15 °F 59% 29.73 in - West 10.4 mph - -  
7:00 AM 24.1 °F 13.7 °F 15.4 °F 70% 29.73 in - West 10.4 mph 18.4 mph N/A   Unknown
8:00 AM 24.1 °F 14.4 °F 15.1 °F 69% 29.74 in - West 9.2 mph - N/A   Unknown
9:00 AM 25.5 °F 14.3 °F 15.6 °F 66% 29.74 in - West 12.7 mph 25.3 mph N/A   Unknown
10:00 AM 27.0 °F 15.6 °F 15.6 °F 62% 29.75 in - West 13.8 mph 23.0 mph N/A   Unknown
11:00 AM 27.3 °F 17.1 °F 14.5 °F 59% 29.73 in - West 11.5 mph 20.7 mph N/A   Unknown
12:00 PM 28.4 °F 18.5 °F 14.0 °F 55% 29.71 in - West 11.5 mph 23.0 mph N/A   Unknown
1:00 PM 29 °F - 12 °F 36% 29.70 in - West 13.8 mph - -  
1:00 PM 28.6 °F 17.7 °F 12.4 °F 51% 29.70 in - West 13.8 mph 25.3 mph N/A   Unknown
2:00 PM 28.8 °F 19.5 °F 11.3 °F 48% 29.70 in - West 10.4 mph 18.4 mph N/A   Unknown
3:00 PM 28.6 °F 19.3 °F 12.2 °F 50% 29.70 in - West 10.4 mph 17.3 mph N/A   Unknown
4:00 PM 27.3 °F 19.9 °F 12.6 °F 54% 29.72 in - West 6.9 mph - N/A   Unknown
5:00 PM 26.1 °F 19.4 °F 13.1 °F 58% 29.73 in - West 5.8 mph - N/A   Unknown
6:00 PM 24.8 °F 19.1 °F 13.1 °F 61% 29.74 in - West 4.6 mph - N/A   Unknown
7:00 PM 23 °F - 13 °F 55% 29.76 in - West 3.5 mph - -  
7:00 PM 23.4 °F 18.9 °F 13.5 °F 66% 29.76 in - West 3.5 mph - N/A   Unknown
8:00 PM 21.7 °F - 13.5 °F 70% 29.77 in - West 2.3 mph - N/A   Unknown
9:00 PM 19.0 °F - 14.2 °F 81% 29.78 in - NW 1.2 mph - N/A   Unknown
10:00 PM 23.2 °F - 14.5 °F 70% 29.78 in - West 2.3 mph - N/A   Unknown
11:00 PM 24.8 °F 19.1 °F 15.4 °F 68% 29.79 in - West 4.6 mph - N/A   Unknown